COSMOS 1275 DEB

Satellite information

Favourite Embed

Satellite Type and Status

DEBRISIN ORBIT

Key statistics

Satellite COSMOS 1275 DEB at a glance.

Uptime

16042

Days in orbit

Revolutions

≈ 14.0

Per day

Orbit

LEO

Low Earth Orbit

Inclination

83.1

Latest

Satellite identification and parameters

Extended collection of information and parameters for COSMOS 1275 DEB.

Object identification

Identified? True

Debris? True

Object name: COSMOS 1275 DEB

International designator: 1981-053MP

Object number (NORAD): 27734

Object ID (CCSDS): 27734

Country: COMMONWEALTH OF INDEPENDENT STATES (CIS)

Current information (Y/N): Y

RCS size: SMALL

Orbital parameters

Period: 102.69 minutes

Inclination: 83.1201 deg

SMA: 7264.038 km

Apoapsis: 960.628 km

Periapsis: 811.178 km

RAAN: 19.2888 deg

Eccentricy: 0.010287

Argument of periapsis: 85.4644 deg

Mean anomaly: 275.827 deg

Mean motion: 14.02282828 rev/day

Mean motion (dot): 0.00003645 rev/day2

B* drag term: 0.002261 1/REarth

Two-line elements (TLE)

Creation date: May 5, 2025, 10:46 p.m.

Reference frame: TEME

Reference center: EARTH

Epoch: May 4, 2025, 2:47 a.m. UTC

TLE line 0: 0 COSMOS 1275 DEB

TLE line 1: 1 27734U 81053MP 25124.11622307 .00003645 00000-0 22610-2 0 9997

TLE line 2: 2 27734 83.1201 19.2888 0102870 85.4644 275.8270 14.02282828499072

Live tracking on map

Real-time ground track for satellite COSMOS 1275 DEB.

In-orbit conjunctions

A list of the most updated potential collisions computed for object COSMOS 1275 DEB.

Target Orbit TCA Probability of collision Miss distance Type
COSMOS 1372 LEO 2025-02-14 08:34:50 0.0004195071 173.0 (m) PAYLOAD
COSMOS 1816 LEO 2024-06-19 13:50:18 0.001753284 271.0 (m) PAYLOAD

Associated space launch

Navigation satellite providing location information for the Tsiklon-B navigation system

COSMOS 1275 DEB was lifted into orbit during the mission ‘Kosmos-3M | Parus 27’, on board a Kosmos-3M space rocket.

The launch took place on June 4, 1981, 3:41 p.m. from 132/2.

For more information about the launch, click the button.

Launch to space Kosmos-3M | Parus 27
Kosmos-3M | Parus 27

Agency: N/A

Status: Launch Successful

Launch date: June 4, 1981, 3:41 p.m. UTC

Rocket: Kosmos-3M

Launch pad: 132/2

Location: Plesetsk Cosmodrome, Russian Federation

...

Latest news about this satellite

There are no fresh news available about this satellite. Check back as we update our databases every day.


Newsletter sign-up

Weekly statistics, charts and insights to help you stay on top of the space industry.